Content
SEND FEEDBACK

Daily
Averages
Monthly
Summary
United States of America

NEW YORK - CENTRAL PARK, NEW YORK


Home > North America > United States > New York
Elevation: 14 feet     Latitude: 40 47N     Longitude: 073 58W

WEATHER
 
SELECT A DAY
Number of Records: 153,050;   Date Range: 11/1/95 - 12/21/14
 
SHARE

PRINT THIS DATA

[ ← Previous Day ]
WEATHER ALMANAC - AUGUST 1, 2013
[ Next Day → ]
[ °C ]   °F
Weather ElementAverageHighLow
Temperature69.6 °F75 °F (8:51 am)66.9 °F (12:32 pm)
Dewpoint65 °F68 °F (7:51 pm)60.1 °F (5:51 am)
Humidity86.2 %96 % (8:09 pm)62 % (7:51 am)
Barometer29.93 in30.02 in (1:51 am)29.84 in (10:51 pm)
Wind Speed3.3 mph9.2 mph (1:11 pm)
Weather ElementAverage
Visibility4.1 mi
Wind DirectionENE (50.9 °)

Weather ElementTotal
Precipitation1.84 in
Cooling Degree Days6 (Base 65)
Growing Degree Days21 (Base 50)
Averaged from 47 records on August 1, 2013
WEATHER CONDITIONS BREAKOUT
WIND DIRECTION BREAKOUT
WEATHER BY HOUR - AUGUST 1, 2013
[ °C ]   °F
Local TimeTemperatureDewpointHumidityBarometerVisibilityWind DirectionWind SpeedGust SpeedPrecipitationEventsConditions
1:51 AM73.0 °F61.0 °F66 %30.02 in10.0 miCalmClear
2:51 AM73.0 °F61.0 °F66 %30.00 in10.0 miCalmOvercast
3:51 AM73.9 °F61.0 °F64 %29.98 in10.0 miSW (230°)3.5 mphOvercast
4:51 AM73.0 °F61.0 °F66 %29.98 in10.0 miCalmOvercast
5:51 AM73.0 °F60.1 °F64 %29.98 in10.0 miSouth (170°)3.5 mphMostly Cloudy
6:51 AM73.0 °F61.0 °F66 %29.97 in9.0 miCalmClear
7:51 AM73.9 °F60.1 °F62 %29.97 in10.0 miCalmClear
8:51 AM75.0 °F61.0 °F62 %29.96 in10.0 miCalmMostly Cloudy
9:51 AM73.9 °F64.9 °F73 %29.96 in8.0 miVariable3.5 mphOvercast
10:51 AM73.0 °F63.0 °F71 %29.95 in6.0 miCalm0.00 inRainLight Rain
11:31 AM70.0 °F66.0 °F87 %29.99 in5.0 miVariable3.5 mph0.01 inRainLight Rain
11:47 AM69.8 °F64.4 °F83 %29.99 in4.0 miVariable4.6 mph0.01 inRainLight Rain
11:51 AM69.1 °F64.9 °F87 %29.96 in4.0 miVariable4.6 mph0.01 inRainLight Rain
12:20 PM68.0 °F64.9 °F90 %29.98 in1.8 miCalm0.02 inRainHeavy Rain
12:32 PM66.9 °F64.9 °F93 %29.97 in0.8 miVariable4.6 mph0.12 inRainHeavy Rain
12:44 PM66.9 °F64.9 °F93 %29.97 in1.5 miCalm0.14 inRainLight Rain
12:51 PM66.9 °F64.9 °F93 %29.94 in1.5 miCalm0.15 inRainLight Rain
12:59 PM68.0 °F66.0 °F93 %29.97 in1.5 miVariable5.8 mph0.00 inRainLight Rain
1:11 PM68.0 °F66.0 °F93 %29.96 in2.0 miSouth (190°)9.2 mph0.01 inRainLight Rain
1:19 PM68.0 °F64.9 °F90 %29.97 in2.5 miVariable5.8 mph0.01 inRainLight Rain
1:30 PM66.9 °F64.9 °F93 %29.97 in1.8 miVariable5.8 mph0.03 inRainLight Rain
1:51 PM66.9 °F64.0 °F90 %29.94 in1.2 miSouth (180°)4.6 mph0.07 inRainRain
2:51 PM68.0 °F66.0 °F93 %29.92 in2.0 miSSE (160°)6.9 mph0.06 inRainLight Rain
3:28 PM66.9 °F64.0 °F90 %29.94 in1.8 miVariable4.6 mph0.03 inRainLight Rain
3:51 PM66.9 °F64.9 °F93 %29.91 in1.5 miVariable5.8 mph0.06 inRainLight Rain
4:26 PM66.9 °F64.9 °F93 %29.91 in3.0 miNorth0.06 inRainLight Rain
4:49 PM68.0 °F64.4 °F88 %29.91 in2.5 miCalm0.06 inOvercast
4:51 PM68.0 °F64.9 °F90 %29.89 in2.5 miNorth0.06 inOvercast
5:03 PM68.0 °F64.9 °F90 %29.91 in3.0 miVariable5.8 mphOvercast
5:17 PM66.9 °F64.0 °F90 %29.90 in5.0 miSouth (170°)5.8 mphOvercast
5:51 PM68.0 °F66.0 °F93 %29.87 in4.0 miVariable6.9 mphOvercast
6:02 PM69.1 °F66.0 °F90 %29.89 in2.5 miVariable5.8 mph0.00 inRainLight Rain
6:13 PM69.1 °F66.0 °F90 %29.89 in3.0 miCalm0.00 inOvercast
6:19 PM69.1 °F66.9 °F93 %29.88 in2.5 miNorth0.00 inOvercast
6:39 PM69.1 °F66.9 °F93 %29.89 in3.0 miCalm0.00 inOvercast
6:51 PM69.1 °F66.9 °F93 %29.87 in3.0 miVariable4.6 mph0.00 inOvercast
7:12 PM70.0 °F66.9 °F90 %29.89 in2.5 miSSE (160°)5.8 mphOvercast
7:51 PM70.0 °F68.0 °F93 %29.86 in0.8 miNorth0.05 inRainHeavy Rain
8:04 PM69.1 °F66.9 °F93 %29.89 in0.5 miVariable4.6 mph0.16 inFog-RainHeavy Rain
8:09 PM69.1 °F68.0 °F96 %29.88 in1.2 miCalm0.17 inRainLight Rain
8:18 PM69.1 °F68.0 °F96 %29.89 in2.5 miSSW (200°)4.6 mph0.18 inRainLight Rain
8:46 PM69.8 °F68.0 °F94 %29.89 in3.0 miCalm0.18 inRainLight Rain
8:51 PM70.0 °F68.0 °F93 %29.86 in3.0 miVariable4.6 mph0.18 inOvercast
9:51 PM70.0 °F68.0 °F93 %29.86 in4.0 miSSW (210°)3.5 mph0.01 inOvercast
10:51 PM70.0 °F68.0 °F93 %29.84 in6.0 miWSW (240°)5.8 mphOvercast
11:44 PM70.0 °F68.0 °F93 %29.87 in5.0 miWSW (240°)3.5 mph0.00 inOvercast
11:46 PM69.8 °F68.0 °F94 %29.87 in5.0 miWSW (240°)3.5 mph0.00 inOvercast
Hourly data recorded from KNYC, located miles away from New York - Central Park, New York







STORIES FROM OUR PARTNERS